Home   Weather   Southampton   Past weeks

Flag for United Kingdom Past Weather in Southampton, England, United Kingdom — Yesterday and Last 2 Weeks

Now
30 °F

Ice fog.


Feels Like: 30 °F
Forecast: 30 / 43 °F
Wind: 2 mph from Northeast

Location: Bournemouth Airport

Current Time: Jan 18, 2017 at 1:51:22 am

Latest Report: Jan 17, 2017 at 11:20 pm


Visibility: 2 mi

Pressure: 30.63 "Hg

Humidity: 100%

Dew Point: 30 °F

Location of SouthamptonLocation

Past Weather in Southampton — Graph

°F

Southampton Temperature Yesterday

Maximum temperature yesterday: 45 °F (at 2:50 pm)
Minimum temperature yesterday: 30 °F (at 8:50 pm)
Average temperature yesterday: 38 °F

High & Low Weather Summary for the Past Weeks

 TemperatureHumidityPressure
High52 °F (Jan 7, 11:20 am)100% (Jan 2, 11:20 pm)30.63 "Hg (Jan 2, 11:20 pm)
Low21 °F (Jan 3, 7:50 am)61% (Jan 5, 3:20 pm)29.36 "Hg (Jan 12, 3:20 pm)
Average42 °F88%30.24 "Hg
* Reported Jan 2 11:20 pm — Jan 17 11:20 pm, Southampton, Weather by CustomWeather, © 2017

Note: Actual official high and low records may vary slightly from our data, if they occured in-between our weather recording intervals... More about our weather records

Advertising

Southampton Weather History for the Previous 24 Hours

Scroll right to see more
 ConditionsComfort  
Time TempWeatherWind HumidityBarometerVisibility
11:20 pm
Tue, Jan 17
30 °FIce fog.2 mph100%30.63 "Hg2 mi
10:50 pm30 °FIce fog.1 mph93%30.63 "Hg2 mi
10:20 pm30 °FIce fog.2 mph93%30.63 "Hg2 mi
9:50 pm30 °FIce fog.3 mph93%30.63 "Hg2 mi
9:20 pm30 °FIce fog.5 mph93%30.63 "Hg2 mi
8:50 pm30 °FIce fog.5 mph100%30.63 "Hg3 mi
8:20 pm34 °FFog.2 mph100%30.63 "Hg3 mi
7:50 pm32 °FIce fog.1 mph100%30.63 "Hg3 mi
7:20 pm34 °FPassing clouds.5 mph93%30.63 "Hg4 mi
6:50 pm36 °FPassing clouds.6 mph100%30.63 "Hg4 mi
6:20 pm36 °FPassing clouds.3 mph100%30.60 "Hg4 mi
5:50 pm36 °FPassing clouds.3 mph93%30.60 "Hg4 mi
5:20 pm37 °FPassing clouds.5 mph93%30.60 "Hg6 mi
4:50 pm39 °FPassing clouds.5 mph93%30.60 "Hg4 mi
4:20 pm41 °FScattered clouds.3 mph87%30.60 "HgN/A
3:50 pm43 °FPartly sunny.3 mph81%30.60 "HgN/A
3:20 pm43 °FPartly sunny.6 mph81%30.57 "HgN/A
2:50 pm45 °FPartly sunny.3 mph76%30.57 "HgN/A
2:20 pm43 °FPartly sunny.5 mph81%30.57 "HgN/A
1:50 pm43 °FPartly sunny.5 mph81%30.57 "HgN/A
1:20 pm43 °FPartly sunny.6 mph81%30.57 "HgN/A
12:50 pm43 °FPartly sunny.7 mph81%30.57 "HgN/A
12:20 pm43 °FPartly sunny.7 mph81%30.57 "HgN/A
11:50 am43 °FPartly sunny.8 mph81%30.57 "HgN/A
11:20 am43 °FPartly sunny.7 mph81%30.57 "HgN/A
10:50 am43 °FPartly sunny.7 mph81%30.57 "HgN/A
10:20 am41 °FBroken clouds.7 mph93%30.57 "HgN/A
9:50 am41 °FPartly sunny.6 mph93%30.57 "HgN/A
9:20 am41 °FPartly sunny.5 mph93%30.57 "HgN/A
8:50 am41 °FPartly sunny.6 mph93%30.57 "Hg5 mi
8:20 am39 °FOvercast.6 mph100%30.57 "Hg4 mi
7:50 am39 °FOvercast.3 mph100%30.54 "Hg4 mi
7:20 am39 °FOvercast.3 mph100%30.54 "Hg4 mi
6:50 am39 °FOvercast.5 mph100%30.51 "Hg6 mi
6:20 am39 °FPassing clouds.3 mph100%30.51 "Hg6 mi
5:50 am39 °FPassing clouds.6 mph100%30.51 "Hg4 mi
Weather by CustomWeather, © 2017

See weather overviewHow to use our weather pages